[[{"header":{"parameterUnit":"m.s-1","parameterCategory":1,"la1":30.2991,"la2":30.254,"lo1":-89.0895,"lo2":-89.0444,"dy":0.0017,"dx":0.0017,"nx":28,"ny":28,"refTime":"2024-02-17T09:00:00:Z","depth":0,"parameterNumber":2,"parameterNumberName":"U-component_of_WINDS"},"data":[0,0,0,0,0,0,0,0,0,0,0,0,0,0,0,0,0,0,0,0,0,0,0,0,0,0,0,0,0,0,0,0,0,0,0,0,0,0,0,0,0,0,0,0,0,0,0,0,0,0,0,0,0,0,0,0,0,0,-2.0666,-2.0667,0,-2.0759,-2.076,-2.0761,-2.0728,-2.0726,-2.0724,-2.0722,-2.0818,-2.0822,-2.0827,0,0,0,0,0,0,0,0,0,0,0,0,0,-2.0461,-2.0465,-2.0666,-2.0667,-2.0669,-2.0759,-2.076,-2.0761,-2.0729,-2.0726,-2.0724,-2.0721,-2.0817,-2.0822,-2.0827,0,0,0,0,0,0,0,0,0,0,0,0,0,-2.0552,-2.0467,-2.0666,-2.0663,-2.0664,-2.0759,-2.076,-2.0762,-2.0729,-2.0726,-2.0723,-2.072,-2.0815,-2.0821,-2.0828,-2.0932,0,0,-2.0849,-2.0852,0,0,0,0,0,0,0,0,-2.0547,-2.056,-2.0662,-2.0663,-2.0664,-2.0729,-2.0723,-2.0819,-2.073,-2.0704,-2.0722,-2.0718,-2.0791,-2.0799,-2.0824,-2.0936,-2.094,-2.0849,-2.0853,-2.0856,-2.0858,0,0,0,0,0,0,0,-2.0541,-2.0555,-2.0703,-2.0664,-2.0665,-2.0657,-2.0667,-2.0741,-2.0764,-2.0706,-2.0704,-2.0716,-2.0791,-2.0817,-2.0826,-2.0942,-2.0849,-2.0855,-2.0859,-2.0862,-2.1144,-2.1147,0,0,0,0,0,0,-2.0534,-2.055,-2.07,-2.0706,-2.0597,-2.0664,-2.0674,-2.0711,-2.0763,-2.0768,-2.0718,-2.0714,-2.0807,-2.0818,-2.0829,-2.0954,-2.0856,-2.0862,-2.0866,-2.1141,-2.1145,-2.1149,0,0,0,0,0,0,-2.053,-2.0547,-2.0696,-2.0628,-2.0646,-2.067,-2.0712,-2.0715,-2.0741,-2.0772,-2.0776,-2.0741,-2.0805,-2.082,-2.0906,-2.0957,-2.0865,-2.0872,-2.1137,-2.1142,-2.1147,-2.1206,0,0,0,0,0,0,-2.0524,-2.0546,-2.0586,-2.0629,-2.065,-2.0772,-2.0716,-2.0719,-2.0753,-2.0748,-2.0794,-2.0799,-2.0804,-2.0897,-2.0913,-2.0965,-2.0877,-2.1132,-2.1139,-2.1145,-2.12,-2.1212,-2.1224,0,0,0,0,0,-2.0517,-2.0599,-2.0588,-2.0606,-2.07,-2.0775,-2.0787,-2.0791,-2.0757,-2.0797,-2.0817,-2.0798,-2.0949,-2.0906,-2.0924,-2.0979,-2.1129,-2.1137,-2.1145,-2.1194,-2.121,-2.1223,0,0,0,0,0,0,-2.0562,-2.0605,-2.0593,-2.0692,-2.073,-2.077,-2.0821,-2.0808,-2.0857,-2.085,-2.0853,-2.0864,-2.0953,-2.0974,-2.0926,-2.1082,-2.1034,-2.1046,-2.1065,-2.108,-2.1092,-2.1086,-2.0882,0,0,0,0,0,-2.0583,-2.0641,-2.0675,-2.0759,-2.0779,-2.0796,-2.0829,-2.0829,-2.0869,-2.0885,-2.0911,-2.0951,-2.1007,-2.1045,-2.1098,-2.1202,-2.1212,-2.1248,-2.126,-2.127,-2.1281,-2.1337,-2.1354,-2.1174,-2.1174,-2.1174,0,0,-2.0629,-2.0659,-2.0695,-2.0769,-2.0799,-2.0859,-2.081,-2.0876,-2.0921,-2.0895,-2.0979,-2.0999,-2.1044,-2.114,-2.1183,-2.116,-2.1332,-2.128,-2.1287,-2.1293,-2.1347,-2.1364,-2.1379,-2.118,-2.1179,-2.1178,0,0,-2.0742,-2.077,-2.0843,-2.0874,-2.0919,-2.093,-2.0948,-2.0989,-2.1002,-2.1086,-2.1068,-2.1121,-2.1218,-2.1251,-2.128,-2.1404,-2.1389,-2.1421,-2.1485,-2.154,-2.1554,-2.1567,-2.1612,-2.1628,-2.1432,-2.1432,-2.1432,0,-2.0792,-2.0882,-2.0883,-2.095,-2.0983,-2.0961,-2.1036,-2.1065,-2.1126,-2.115,-2.1123,-2.1244,-2.1272,-2.1376,-2.1406,-2.143,-2.145,-2.1417,-2.1552,-2.1564,-2.1576,-2.162,-2.1636,-2.1436,-2.1435,-2.1435,-2.1434,0,-2.0942,-2.1005,-2.1058,-2.1117,-2.1156,-2.1226,-2.1238,-2.1277,-2.1272,-2.1286,-2.1372,-2.1405,-2.1465,-2.1489,-2.1486,-2.1592,-2.1576,-2.1551,-2.1503,-2.1597,-2.1638,-2.1654,-2.1441,-2.144,-2.1438,-2.1438,0,0,-2.1089,-2.1146,-2.1166,-2.1193,-2.124,-2.1289,-2.1358,-2.1416,-2.145,-2.1492,-2.1551,-2.1633,-2.1609,-2.1642,-2.1642,-2.169,-2.1787,-2.1658,-2.1659,-2.1682,-2.1907,-2.1928,-2.1947,-2.1776,-2.1779,-2.1782,-2.1904,0,-2.1207,-2.1328,-2.133,-2.1442,-2.15,-2.148,-2.154,-2.1576,-2.1591,-2.1642,-2.1657,-2.1716,-2.168,-2.17,-2.1746,-2.1765,-2.1833,-2.1756,-2.1832,-2.1834,-2.1823,-2.1968,-2.199,-2.2104,-2.192,-2.1922,-2.1924,0,-2.1361,-2.1408,-2.1526,-2.1565,-2.1589,-2.1644,-2.1697,-2.1746,-2.1786,-2.1793,-2.183,-2.1822,-2.1892,-2.1841,-2.1938,-2.1887,-2.1917,-2.1931,-2.1935,-2.1944,-2.1886,-2.1982,-2.214,-2.2158,-2.1949,-2.1947,-2.1945,0,-2.1458,-2.155,-2.1632,-2.1655,-2.1703,-2.1742,-2.1763,-2.18,-2.1835,-2.1882,-2.1904,-2.1958,-2.1989,-2.203,-2.2037,-2.1999,-2.2136,-2.2084,-2.2144,-2.2144,-2.2176,-2.2174,-2.2342,-2.2193,-2.2192,-2.2192,-2.2192,0,-2.1591,-2.1664,-2.1676,-2.1727,-2.1808,-2.1809,-2.189,-2.1908,-2.1941,-2.1995,-2.1981,-2.2032,-2.2037,-2.209,-2.2095,-2.2176,-2.2189,-2.2197,-2.2198,-2.22,-2.2199,-2.2221,-2.2214,-2.2196,-2.2195,-2.2195,-2.2194,0,-2.1713,-2.1724,-2.1813,-2.185,-2.1861,-2.192,-2.1952,-2.2001,-2.2013,-2.2081,-2.2098,-2.2117,-2.2178,-2.2189,-2.2261,-2.2264,-2.2361,-2.2353,-2.2348,-2.2347,-2.2407,-2.2402,-2.2597,-2.2623,-2.2455,-2.2456,-2.2457,0,-2.1798,-2.1854,-2.1897,-2.1932,-2.1955,-2.2012,-2.2047,-2.205,-2.2088,-2.2137,-2.218,-2.2239,-2.2287,-2.2386,-2.2407,-2.2462,-2.2456,-2.252,-2.2464,-2.2464,-2.2458,-2.2456,-2.2462,-2.2532,-2.2534,-2.2535,-2.2536,0,-2.1948,-2.195,-2.2002,-2.2055,-2.2097,-2.214,-2.2179,-2.2209,-2.2217,-2.226,-2.2322,-2.2359,-2.2432,-2.2492,-2.2546,-2.2568,-2.2554,-2.2553,-2.257,-2.2573,-2.2569,-2.2573,-2.2379,-2.2549,-2.2548,-2.2547,-2.2546,-2.2546,-2.2055,-2.2104,-2.2142,-2.2199,-2.2229,-2.2267,-2.2314,-2.2332,-2.2384,-2.2444,-2.2442,-2.251,-2.2548,-2.262,-2.2646,-2.2699,-2.2679,-2.2703,-2.2709,-2.2716,-2.2722,-2.2558,-2.2709,-2.2709,-2.2708,-2.2708,-2.2708,0,-2.2205,-2.2228,-2.2281,-2.2337,-2.2382,-2.2364,-2.2407,-2.2446,-2.2506,-2.2543,-2.259,-2.2662,-2.2719,-2.2744,-2.28,-2.2838,-2.2833,-2.2853,-2.2851,-2.2857,-2.2737,-2.2717,-2.2856,-2.2856,-2.2856,-2.2856,-2.2856,-2.2856,-2.2289,-2.237,-2.2377,-2.2473,-2.2496,-2.2563,-2.2589,-2.2623,-2.2653,-2.2733,-2.278,-2.2796,-2.2828,-2.2886,-2.2938,-2.2943,-2.2965,-2.2989,-2.2992,-2.288,-2.2865,-2.2851,-2.2832,-2.2993,-2.2993,-2.3107,-2.3108,-2.3109]},{"header":{"parameterUnit":"m.s-1","parameterCategory":1,"la1":30.2991,"la2":30.254,"lo1":-89.0895,"lo2":-89.0444,"dy":0.0017,"dx":0.0017,"nx":28,"ny":28,"refTime":"2024-02-17T09:00:00:Z","depth":0,"parameterNumber":3,"parameterNumberName":"V-component_of_WINDS"},"data":[0,0,0,0,0,0,0,0,0,0,0,0,0,0,0,0,0,0,0,0,0,0,0,0,0,0,0,0,0,0,0,0,0,0,0,0,0,0,0,0,0,0,0,0,0,0,0,0,0,0,0,0,0,0,0,0,0,0,-8.2244,-8.2245,0,-8.2319,-8.232,-8.232,-8.2205,-8.2201,-8.2197,-8.2193,-8.2264,-8.2269,-8.2275,0,0,0,0,0,0,0,0,0,0,0,0,0,-8.1995,-8.2001,-8.2244,-8.2245,-8.2246,-8.2319,-8.232,-8.2321,-8.2205,-8.2201,-8.2196,-8.2191,-8.2262,-8.2269,-8.2275,0,0,0,0,0,0,0,0,0,0,0,0,0,-8.209,-8.2002,-8.2244,-8.2197,-8.2194,-8.2318,-8.232,-8.2321,-8.2207,-8.22,-8.2195,-8.2189,-8.226,-8.2268,-8.2276,-8.2448,0,0,-8.2302,-8.2306,0,0,0,0,0,0,0,0,-8.2085,-8.2099,-8.2203,-8.2201,-8.2197,-8.2246,-8.2258,-8.2363,-8.2208,-8.2202,-8.2193,-8.2186,-8.2263,-8.227,-8.2297,-8.2451,-8.2454,-8.2303,-8.2308,-8.2311,-8.2314,0,0,0,0,0,0,0,-8.2078,-8.2095,-8.2273,-8.2205,-8.2201,-8.2171,-8.2178,-8.2277,-8.2264,-8.2202,-8.2194,-8.2204,-8.226,-8.2289,-8.2298,-8.2455,-8.2302,-8.231,-8.2315,-8.2318,-8.2752,-8.2758,0,0,0,0,0,0,-8.2078,-8.2091,-8.2271,-8.2276,-8.2125,-8.218,-8.2188,-8.2237,-8.2263,-8.2262,-8.2209,-8.2199,-8.2278,-8.2288,-8.23,-8.2502,-8.2311,-8.2319,-8.2324,-8.2746,-8.2754,-8.2761,0,0,0,0,0,0,-8.2074,-8.2096,-8.2268,-8.2181,-8.2201,-8.2191,-8.2247,-8.2241,-8.2271,-8.2269,-8.2265,-8.2243,-8.2274,-8.2288,-8.2412,-8.2503,-8.2323,-8.2331,-8.2738,-8.2748,-8.2757,-8.2908,0,0,0,0,0,0,-8.2067,-8.2095,-8.2161,-8.2184,-8.2206,-8.2381,-8.2252,-8.2247,-8.2286,-8.2273,-8.2299,-8.2298,-8.227,-8.24,-8.2421,-8.2511,-8.2337,-8.273,-8.2742,-8.2754,-8.2895,-8.2922,-8.2945,0,0,0,0,0,-8.2058,-8.22,-8.2165,-8.2188,-8.2289,-8.2387,-8.2399,-8.2366,-8.2294,-8.236,-8.2359,-8.2297,-8.249,-8.2414,-8.2436,-8.2531,-8.2724,-8.2739,-8.2753,-8.2884,-8.2917,-8.2945,0,0,0,0,0,0,-8.2187,-8.2202,-8.2164,-8.2317,-8.2352,-8.2367,-8.2449,-8.2402,-8.2456,-8.2442,-8.2396,-8.2403,-8.2536,-8.2545,-8.246,-8.2697,-8.2594,-8.2614,-8.2687,-8.2718,-8.2742,-8.2737,-8.2344,0,0,0,0,0,-8.2233,-8.2313,-8.2321,-8.2456,-8.2475,-8.246,-8.2501,-8.2473,-8.2506,-8.2519,-8.2526,-8.256,-8.2627,-8.2673,-8.2735,-8.2896,-8.2899,-8.2971,-8.2996,-8.3017,-8.3034,-8.3119,-8.3151,-8.2808,-8.2808,-8.2808,0,0,-8.2329,-8.2348,-8.24,-8.2482,-8.2505,-8.2587,-8.2473,-8.2564,-8.2624,-8.2532,-8.265,-8.2657,-8.269,-8.2833,-8.2897,-8.2845,-8.313,-8.3036,-8.3052,-8.3058,-8.3137,-8.317,-8.3198,-8.2818,-8.2817,-8.2815,0,0,-8.2547,-8.2569,-8.2683,-8.271,-8.2747,-8.2736,-8.2763,-8.2786,-8.2788,-8.2906,-8.2839,-8.2907,-8.3026,-8.3052,-8.3081,-8.3308,-8.3253,-8.3329,-8.3459,-8.3542,-8.3569,-8.3593,-8.3673,-8.3703,-8.3346,-8.3347,-8.3347,0,-8.2661,-8.2784,-8.2747,-8.2844,-8.2881,-8.2804,-8.2918,-8.2944,-8.3,-8.3026,-8.2968,-8.3114,-8.3131,-8.3279,-8.3335,-8.3361,-8.3389,-8.3326,-8.3569,-8.3592,-8.3614,-8.3689,-8.372,-8.3356,-8.3355,-8.3354,-8.3353,0,-8.2922,-8.3008,-8.3095,-8.3153,-8.3199,-8.3304,-8.3282,-8.3333,-8.3301,-8.3295,-8.3415,-8.3433,-8.3497,-8.353,-8.3498,-8.3673,-8.364,-8.3576,-8.3472,-8.3656,-8.3726,-8.3755,-8.3369,-8.3366,-8.3363,-8.3361,0,0,-8.3222,-8.3259,-8.3292,-8.3317,-8.3352,-8.3417,-8.3517,-8.3582,-8.3626,-8.3666,-8.3748,-8.385,-8.3791,-8.3824,-8.3794,-8.3868,-8.4045,-8.3794,-8.3794,-8.384,-8.4237,-8.4285,-8.432,-8.4009,-8.4014,-8.4018,-8.4234,0,-8.3439,-8.3615,-8.3585,-8.3754,-8.3832,-8.376,-8.3847,-8.3877,-8.3874,-8.3938,-8.3933,-8.4006,-8.3923,-8.3943,-8.4012,-8.4009,-8.4124,-8.3993,-8.4083,-8.4087,-8.4077,-8.4357,-8.4408,-8.4611,-8.4262,-8.4266,-8.427,0,-8.3715,-8.3768,-8.3946,-8.3969,-8.4,-8.408,-8.4136,-8.4199,-8.423,-8.4223,-8.426,-8.4217,-8.4314,-8.4209,-8.4342,-8.4254,-8.4288,-8.4292,-8.4299,-8.4306,-8.4189,-8.4371,-8.4675,-8.4706,-8.4313,-8.431,-8.4306,0,-8.3916,-8.4031,-8.4153,-8.4176,-8.4206,-8.4263,-8.4278,-8.4304,-8.4344,-8.4393,-8.4418,-8.4477,-8.4509,-8.4554,-8.4527,-8.4453,-8.4665,-8.4557,-8.466,-8.4661,-8.4707,-8.4705,-8.5021,-8.4731,-8.473,-8.473,-8.4729,0,-8.4161,-8.4272,-8.4243,-8.4318,-8.4441,-8.4404,-8.4525,-8.453,-8.4554,-8.4627,-8.4567,-8.4636,-8.4596,-8.4661,-8.464,-8.4753,-8.4768,-8.4763,-8.4756,-8.4769,-8.477,-8.4791,-8.4776,-8.4738,-8.4736,-8.4734,-8.4733,0,-8.4406,-8.4391,-8.4519,-8.4537,-8.4544,-8.4633,-8.4647,-8.4716,-8.4708,-8.4801,-8.4821,-8.4808,-8.4882,-8.4859,-8.4938,-8.4924,-8.5067,-8.5042,-8.5058,-8.5051,-8.5155,-8.5145,-8.5496,-8.554,-8.5221,-8.5224,-8.5227,0,-8.4563,-8.4648,-8.4675,-8.4721,-8.4741,-8.4815,-8.4856,-8.4822,-8.4867,-8.491,-8.4973,-8.5042,-8.5095,-8.5216,-8.5213,-8.5273,-8.5248,-8.5367,-8.5257,-8.5266,-8.5249,-8.5245,-8.5252,-8.5389,-8.5393,-8.5396,-8.5398,0,-8.4844,-8.4832,-8.4896,-8.4957,-8.5009,-8.5054,-8.5094,-8.5134,-8.5103,-8.5156,-8.5232,-8.5274,-8.5355,-8.5424,-8.5478,-8.549,-8.5439,-8.5433,-8.5459,-8.5473,-8.5478,-8.5477,-8.5117,-8.5425,-8.5422,-8.542,-8.5419,-8.5418,-8.5049,-8.5121,-8.5152,-8.5224,-8.5251,-8.529,-8.5355,-8.5356,-8.542,-8.5485,-8.546,-8.5547,-8.5574,-8.5642,-8.5662,-8.5728,-8.5682,-8.5721,-8.573,-8.5741,-8.5754,-8.5468,-8.5737,-8.5736,-8.5736,-8.5735,-8.5734,0,-8.5326,-8.5343,-8.541,-8.5469,-8.5525,-8.5474,-8.5515,-8.5565,-8.5643,-8.5674,-8.5728,-8.5814,-8.588,-8.5882,-8.5943,-8.5996,-8.5974,-8.6013,-8.6008,-8.6012,-8.5791,-8.5762,-8.603,-8.603,-8.603,-8.603,-8.6029,-8.6029,-8.5477,-8.5596,-8.5588,-8.5718,-8.5732,-8.5819,-8.5847,-8.5881,-8.5906,-8.6006,-8.6062,-8.6063,-8.6082,-8.6144,-8.6201,-8.62,-8.6225,-8.6273,-8.6263,-8.6057,-8.6028,-8.6,-8.5972,-8.6279,-8.6279,-8.6477,-8.6479,-8.6481]}]]